Location: Hopkins Observatory
(42.6965°N, 73.1843°W)
Time: 12:57:33
(UTC-04:00)

Amateur Radio Satellites - All Passes

Search period start: 29 September 2016 12:27
Search period end: 30 September 2016 12:27
Location: Hopkins Observatory, 42.6965°N, 73.1843°W

Satellite Date Start Highest point End Downlink Frequencies (MHz)
Time Altitude Azimuth
BUGSAT 1 29 Sep 12:29:04 12:33:09 71° 259° (W) 12:37:12 437.445
DUCHIFAT 1 29 Sep 12:34:11 12:37:41 26° 265° (W) 12:41:13 145.980
DX 1 29 Sep 12:37:38 12:41:33 32° 97° (E) 12:45:24 434.975-435.025
QB50P1 29 Sep 12:38:32 12:41:44 21° 266° (W) 12:44:56 145.935-145.965
AIST 2 29 Sep 12:43:13 12:47:22 60° 240° (WSW) 12:51:29 435.215
YUBILEINY 29 Sep 12:44:45 12:51:31 24° 64° (ENE) 12:58:13 435.215
CUBEBUG 1 29 Sep 12:50:57 12:55:18 83° 284° (WNW) 12:59:37 437.445
VELOX 1 29 Sep 12:50:57 12:55:22 74° 102° (ESE) 12:59:45 145.980
POPSAT HIP 1 29 Sep 12:53:05 12:55:33 15° 268° (W) 12:58:03 437.405
M-CUBED/EXP-1 PRIME 29 Sep 12:56:33 12:59:33 33° 104° (ESE) 13:02:34 437.505
ESTCUBE 1 29 Sep 12:58:49 13:03:10 45° 289° (WNW) 13:07:28 437.505/2401.250
TISAT 1 29 Sep 13:05:14 13:06:17 11° 90° (E) 13:07:20 437.305
NANOSAT C BR1 29 Sep 13:09:56 13:10:52 11° 271° (W) 13:11:48 145.865
ITAMSAT 1 29 Sep 13:19:54 13:21:18 11° 56° (NE) 13:22:42 435.822/435.867
SPROUT 29 Sep 13:23:58 13:28:14 84° 287° (WNW) 13:32:29 437.525
Gurwin Techsat 1B 29 Sep 13:29:55 13:34:56 45° 70° (ENE) 13:40:00 435.225
JAS-2 29 Sep 13:37:04 13:41:40 20° 274° (W) 13:46:39 435.910
UKube-1 29 Sep 13:41:31 13:45:48 66° 286° (WNW) 13:50:03 .
AISAT 29 Sep 13:44:20 13:48:08 29° 292° (WNW) 13:51:55 437.250
PHONESAT 2.4 29 Sep 13:47:09 13:49:57 40° 192° (SSW) 13:52:45 2401.200-2431.200
AUBIESAT-1 29 Sep 13:51:56 13:55:08 50° 292° (WNW) 13:58:23 437.475
Oscar 19 29 Sep 13:58:06 14:03:07 49° 260° (W) 14:08:11 437.125/150
50 SAT 29 Sep 13:58:43 14:01:02 16° 294° (WNW) 14:03:21 437.505
PCSat 29 Sep 14:02:13 14:07:29 53° 246° (WSW) 14:12:43 145.827
AO-7 29 Sep 14:04:40 14:11:31 30° 55° (NE) 14:18:22 29.400- 29.500
ITUPSAT 1 29 Sep 14:11:32 14:13:27 12° 89° (E) 14:15:23 437.325
DX 1 29 Sep 14:14:05 14:17:34 24° 294° (WNW) 14:21:03 434.975-435.025
SWISSCUBE 29 Sep 14:22:29 14:25:50 18° 92° (E) 14:29:09 437.505
Cosmos 2504 29 Sep 14:28:48 14:35:42 39° 73° (ENE) 14:43:00 435.465 / 435.565
VELOX 1 29 Sep 14:29:30 14:31:13 12° 300° (WNW) 14:32:57 145.980
M-CUBED/EXP-1 PRIME 29 Sep 14:32:09 14:33:51 14° 300° (WNW) 14:35:33 437.505
SO-50 29 Sep 14:32:55 14:37:15 34° 115° (ESE) 14:41:34 436.795
BEESAT 29 Sep 14:34:59 14:38:42 22° 94° (E) 14:42:24 436.000
Cosmos 2491 29 Sep 14:37:06 14:45:36 56° 90° (E) 14:54:09 435.465 / 435.565
TISAT 1 29 Sep 14:38:13 14:42:21 65° 286° (WNW) 14:46:28 437.305
YUBILEINY 29 Sep 14:40:34 14:49:16 77° 266° (W) 14:57:55 435.215
ITAMSAT 1 29 Sep 14:54:43 14:59:52 77° 74° (ENE) 15:05:05 435.822/435.867
Gurwin Techsat 1B 29 Sep 15:10:52 15:15:05 24° 267° (W) 15:19:20 435.225
PHONESAT 2.4 29 Sep 15:24:00 15:25:36 14° 208° (SSW) 15:27:11 2401.200-2431.200
AIST 1 29 Sep 15:40:49 15:44:27 26° 74° (ENE) 15:48:02
MOZHAYETS 4 29 Sep 15:45:52 15:49:24 21° 93° (E) 15:52:55
ITUPSAT 1 29 Sep 15:47:00 15:51:48 74° 286° (WNW) 15:56:36 437.325
AO-7 29 Sep 15:55:23 16:03:40 69° 255° (WSW) 16:11:58 29.400- 29.500
KKS-1 29 Sep 15:58:51 16:01:43 17° 92° (E) 16:04:34 437.445
SWISSCUBE 29 Sep 15:59:14 16:03:53 49° 289° (WNW) 16:08:30 437.505
O/OREOS (USA 219) 29 Sep 16:08:59 16:13:00 29° 58° (ENE) 16:16:59 437.305
BEESAT 29 Sep 16:12:07 16:16:38 41° 290° (WNW) 16:21:06 436.000
SO-50 29 Sep 16:13:19 16:17:42 34° 313° (NW) 16:22:04 436.795
HORYU 2 29 Sep 16:17:24 16:20:56 24° 66° (ENE) 16:24:29 437.375
Cosmos 2504 29 Sep 16:22:11 16:29:04 42° 271° (W) 16:36:23 435.465 / 435.565
STARS 29 Sep 16:27:38 16:30:22 16° 92° (E) 16:33:05 437.465
Cosmos 2491 29 Sep 16:35:03 16:42:49 34° 291° (WNW) 16:50:41 435.465 / 435.565
ITAMSAT 1 29 Sep 16:37:34 16:39:56 13° 271° (W) 16:42:18 435.822/435.867
YUBILEINY 29 Sep 16:40:18 16:44:29 15° 286° (WNW) 16:48:41 435.215
NOAA 15 29 Sep 16:47:02 16:50:23 17° 60° (ENE) 16:53:45 137.62
GOMX 1 29 Sep 16:47:34 16:50:29 15° 62° (ENE) 16:53:20 467.674
BRITE-PL 29 Sep 17:04:35 17:10:00 47° 71° (ENE) 17:15:16 437.365/2234.400
CUTE-I 29 Sep 17:08:39 17:12:33 21° 62° (ENE) 17:16:30 437.470
Cubesat XI-IV 29 Sep 17:09:05 17:13:01 21° 62° (ENE) 17:16:56 437.490
CUBESAT XI-V 29 Sep 17:10:27 17:14:04 22° 93° (E) 17:17:39 437.345
AIST 1 29 Sep 17:18:26 17:21:58 25° 271° (W) 17:25:27
MOZHAYETS 4 29 Sep 17:22:21 17:26:42 40° 290° (WNW) 17:31:03
KKS-1 29 Sep 17:34:16 17:38:31 47° 289° (WNW) 17:42:45 437.445
LilacSat-2 29 Sep 17:45:05 17:48:29 33° 71° (ENE) 17:51:54 437.200
O/OREOS (USA 219) 29 Sep 17:48:21 17:52:23 31° 256° (WSW) 17:56:23 437.305
HORYU 2 29 Sep 17:53:21 17:57:19 33° 263° (W) 18:01:20 437.375
AO-7 29 Sep 17:54:42 17:57:52 12° 274° (W) 18:01:04 29.400- 29.500
STARS 29 Sep 18:02:47 18:06:58 47° 289° (WNW) 18:11:10 437.465
NOAA 18 29 Sep 18:03:47 18:09:04 53° 70° (ENE) 18:14:22 137.9125
CUSAT 1 29 Sep 18:06:14 18:11:33 27° 83° (E) 18:17:37 437.405
GOMX 1 29 Sep 18:22:37 18:27:59 78° 258° (WSW) 18:33:07 467.674
NOAA 15 29 Sep 18:24:17 18:29:34 71° 257° (WSW) 18:34:54 137.62
DOVE 4 29 Sep 18:34:53 18:39:48 64° 75° (ENE) 18:44:28 437.250
BRITE-PL 29 Sep 18:43:53 18:48:35 26° 267° (W) 18:53:13 437.365/2234.400
CUTE-I 29 Sep 18:47:01 18:52:12 54° 260° (W) 18:57:26 437.470
CUBESAT XI-V 29 Sep 18:47:12 18:51:35 40° 290° (WNW) 18:55:55 437.345
Cubesat XI-IV 29 Sep 18:47:30 18:52:40 54° 259° (W) 18:57:54 437.490
HO-68 29 Sep 18:50:17 18:56:39 36° 62° (ENE) 19:03:01 435.675
STRAND 1 29 Sep 18:59:16 19:02:00 14° 90° (E) 19:04:42 437.568
RS-15 29 Sep 19:00:10 19:10:33 41° 107° (ESE) 19:21:23 29.354- 29.394
GONETS M04 29 Sep 19:03:09 19:11:25 42° 72° (ENE) 19:19:33
SEEDS 29 Sep 19:15:51 19:19:04 22° 67° (ENE) 19:22:18 437.485
CUTE 1.7 + AOD 2 29 Sep 19:17:23 19:21:08 31° 70° (ENE) 19:24:54 437.475
CANX-2 29 Sep 19:18:51 19:22:45 37° 71° (ENE) 19:26:42 2200.000
LilacSat-2 29 Sep 19:20:24 19:22:53 17° 267° (W) 19:25:23 437.200
Cosmos 2499 29 Sep 19:26:15 19:33:33 48° 76° (ENE) 19:41:22 435.465 / 435.565
AAUSAT CUBESAT 2 29 Sep 19:33:11 19:36:02 18° 65° (ENE) 19:38:54 437.432
CINEMA 3 29 Sep 19:33:17 19:37:41 67° 75° (ENE) 19:41:56 145.822/145.860
NOAA 18 29 Sep 19:45:57 19:50:02 21° 267° (W) 19:54:07 137.9125
CUSAT 1 29 Sep 19:46:25 19:52:50 62° 285° (WNW) 20:00:33 437.405
ISS 29 Sep 19:50:40 19:53:49 47° 140° (SE) 19:56:57 145.825
DANDE 29 Sep 19:54:21 19:59:39 69° 95° (E) 20:06:41 436.750
AO-85 29 Sep 20:13:34 20:18:11 33° 115° (ESE) 20:22:36 145.980
DOVE 4 29 Sep 20:15:08 20:17:49 15° 269° (W) 20:20:27 437.250
COMPASS 1 29 Sep 20:17:55 20:22:04 70° 75° (ENE) 20:26:16 437.405
FUNcube-1 29 Sep 20:24:03 20:27:22 24° 68° (ENE) 20:30:41 145.935
CUBEBUG 2 29 Sep 20:27:40 20:31:49 69° 76° (ENE) 20:35:57 437.445
STRAND 1 29 Sep 20:36:32 20:41:41 71° 286° (WNW) 20:46:48 437.568
DELFI C3 29 Sep 20:37:02 20:39:08 14° 64° (ENE) 20:41:13 145.870
HO-68 29 Sep 20:37:19 20:44:10 47° 260° (W) 20:51:04 435.675
UWE-3 29 Sep 20:41:34 20:45:40 64° 74° (ENE) 20:49:47 435.000/436.395/437.385
SEEDS 29 Sep 20:50:43 20:54:32 34° 263° (W) 20:58:26 437.485
CUTE 1.7 + AOD 2 29 Sep 20:53:36 20:56:59 23° 266° (W) 21:00:25 437.475
PRISM 29 Sep 20:55:16 20:58:03 17° 93° (E) 21:00:47 437.425
CANX-2 29 Sep 20:55:39 20:58:44 19° 267° (W) 21:01:50 2200.000
GONETS M04 29 Sep 21:00:04 21:08:15 45° 273° (W) 21:16:22
Oscar 11 29 Sep 21:00:16 21:04:31 64° 74° (ENE) 21:08:49 145.826/435.025
ZACube-1 29 Sep 21:06:18 21:10:25 76° 75° (ENE) 21:14:35 437.345
AAUSAT CUBESAT 2 29 Sep 21:07:16 21:11:12 41° 262° (W) 21:15:11 437.432
HUMSAT D 29 Sep 21:10:31 21:13:08 17° 65° (ENE) 21:15:47 437.325/437.525
RS-15 29 Sep 21:10:48 21:22:24 65° 310° (NW) 21:34:39 29.354- 29.394
CINEMA 3 29 Sep 21:13:51 21:15:13 11° 270° (W) 21:16:33 145.822/145.860
Cosmos 2499 29 Sep 21:19:45 21:26:27 35° 273° (W) 21:33:36 435.465 / 435.565
ISS 29 Sep 21:27:29 21:30:24 29° 339° (NNW) 21:33:20 145.825
CUSAT 1 29 Sep 21:33:31 21:36:45 13° 307° (NW) 21:40:09 437.405
DANDE 29 Sep 21:39:04 21:43:26 21° 301° (WNW) 21:48:37 436.750
AO-85 29 Sep 21:53:51 21:58:37 37° 311° (NW) 22:03:06 145.980
COMPASS 1 29 Sep 21:57:51 21:58:06 10° 272° (W) 21:58:20 437.405
UNISAT 6 29 Sep 21:59:02 22:01:03 13° 90° (E) 22:03:06 437.425
FUNcube-1 29 Sep 21:59:55 22:03:30 28° 264° (W) 22:07:07 145.935
DELFI C3 29 Sep 22:09:37 22:13:31 51° 261° (W) 22:17:27 145.870
STRAND 1 29 Sep 22:19:37 22:19:55 10° 304° (NW) 22:20:12 437.568
UWE-3 29 Sep 22:21:41 22:22:34 11° 271° (W) 22:23:26 435.000/436.395/437.385
ESTCUBE 1 29 Sep 22:23:25 22:26:37 19° 64° (ENE) 22:29:49 437.505/2401.250
PRISM 29 Sep 22:29:38 22:33:31 39° 289° (WNW) 22:37:21 437.425
ANTELSAT 29 Sep 22:32:48 22:36:41 29° 96° (E) 22:40:38 437.575/2403.000
Oscar 11 29 Sep 22:39:31 22:41:04 12° 271° (W) 22:42:39 145.826/435.025
HUMSAT D 29 Sep 22:44:32 22:48:25 43° 262° (W) 22:52:22 437.325/437.525
TIGRISAT 29 Sep 22:52:28 22:56:43 44° 99° (E) 23:01:02 435.000
JAS-2 29 Sep 23:00:53 23:04:09 13° 82° (E) 23:07:21 435.910
50 SAT 29 Sep 23:02:24 23:04:55 18° 67° (ENE) 23:07:27 437.505
SO-50 29 Sep 23:03:24 23:07:41 37° 48° (NE) 23:11:52 436.795
UKube-1 29 Sep 23:03:27 23:05:10 12° 61° (ENE) 23:06:53 .
AUBIESAT-1 29 Sep 23:05:08 23:07:48 18° 62° (ENE) 23:10:21 437.475
ISS 29 Sep 23:05:24 23:07:39 17° 359° (N) 23:09:54 145.825
AISAT 29 Sep 23:05:59 23:09:43 27° 67° (ENE) 23:13:27 437.250
RS-15 29 Sep 23:27:52 23:37:56 29° 341° (NNW) 23:48:17 29.354- 29.394
DX 1 29 Sep 23:33:45 23:37:36 31° 68° (ENE) 23:41:29 434.975-435.025
UNISAT 6 29 Sep 23:33:45 23:38:08 62° 286° (WNW) 23:42:36 437.425
QB50P2 29 Sep 23:40:14 23:43:29 21° 94° (E) 23:46:44 145.880/145.840
POLYITAN 1 29 Sep 23:42:24 23:45:40 21° 94° (E) 23:48:55 437.675
M-CUBED/EXP-1 PRIME 29 Sep 23:42:57 23:46:58 59° 69° (ENE) 23:50:40 437.505
CUBEBUG 1 29 Sep 23:47:06 23:51:32 87° 79° (E) 23:55:58 437.445
VELOX 1 29 Sep 23:48:33 23:52:59 71° 74° (ENE) 23:57:26 145.980
ESTCUBE 1 29 Sep 23:58:44 00:03:05 46° 261° (W) 00:07:28 437.505/2401.250
TISAT 1 29 Sep 23:58:57 23:59:16 10° 60° (ENE) 23:59:35 437.305
BEESAT 2 30 Sep 00:01:57 00:03:32 12° 109° (ESE) 00:05:06 435.950
ANTELSAT 30 Sep 00:09:34 00:13:19 28° 292° (WNW) 00:17:08 437.575/2403.000
BUGSAT 1 30 Sep 00:11:17 00:13:35 15° 92° (E) 00:15:53 437.445
DUCHIFAT 1 30 Sep 00:16:38 00:20:38 43° 99° (E) 00:24:38 145.980
SPROUT 30 Sep 00:17:45 00:22:01 79° 75° (ENE) 00:26:18 437.525
QB50P1 30 Sep 00:21:07 00:25:16 57° 101° (E) 00:29:25 145.935-145.965
TIGRISAT 30 Sep 00:30:00 00:33:06 19° 295° (WNW) 00:36:14 435.000
POPSAT HIP 1 30 Sep 00:34:49 00:39:04 80° 104° (ESE) 00:43:17 437.405
50 SAT 30 Sep 00:34:57 00:38:12 30° 263° (W) 00:41:28 437.505
UKube-1 30 Sep 00:36:18 00:40:37 72° 258° (WSW) 00:44:58 .
BEESAT 3 30 Sep 00:36:48 00:40:38 60° 120° (ESE) 00:44:31 437.485
AUBIESAT-1 30 Sep 00:38:20 00:42:03 37° 256° (WSW) 00:45:34 437.475
ISS 30 Sep 00:42:05 00:44:55 26° 19° (NNE) 00:47:46 145.825
AISAT 30 Sep 00:42:10 00:46:05 30° 264° (W) 00:50:01 437.250
JAS-2 30 Sep 00:42:38 00:50:31 70° 101° (ESE) 00:57:56 435.910
SO-50 30 Sep 00:44:11 00:48:00 27° 247° (WSW) 00:51:44 436.795
Cosmos 2491 30 Sep 00:46:49 00:54:17 29° 67° (ENE) 01:01:40 435.465 / 435.565
NANOSAT C BR1 30 Sep 00:49:37 00:53:49 73° 285° (WNW) 00:58:00 145.865
DX 1 30 Sep 01:10:13 01:13:48 25° 265° (W) 01:17:24 434.975-435.025
QB50P2 30 Sep 01:15:32 01:19:21 33° 290° (WNW) 01:23:09 145.880/145.840
POLYITAN 1 30 Sep 01:17:43 01:21:32 33° 290° (WNW) 01:25:20 437.675
ITUPSAT 1 30 Sep 01:18:39 01:21:41 17° 62° (ENE) 01:24:44 437.325
M-CUBED/EXP-1 PRIME 30 Sep 01:20:23 01:21:41 11° 262° (W) 01:22:59 437.505
VELOX 1 30 Sep 01:28:33 01:29:55 11° 271° (W) 01:31:16 145.980
SWISSCUBE 30 Sep 01:29:35 01:33:22 24° 65° (ENE) 01:37:10 437.505
TISAT 1 30 Sep 01:30:04 01:34:16 81° 258° (WSW) 01:38:28 437.305
BEESAT 2 30 Sep 01:36:54 01:40:49 62° 306° (NW) 01:44:47 435.950
BEESAT 30 Sep 01:42:00 01:46:02 28° 66° (ENE) 01:50:05 436.000
BUGSAT 1 30 Sep 01:45:21 01:49:11 44° 288° (WNW) 01:53:01 437.445
RS-15 30 Sep 01:45:40 01:55:49 28° 16° (NNE) 02:05:58 29.354- 29.394
Gurwin Techsat 1B 30 Sep 01:46:24 01:49:45 17° 91° (E) 01:53:05 435.225
YUBILEINY 30 Sep 01:47:44 01:54:33 26° 81° (E) 02:01:21 435.215
DUCHIFAT 1 30 Sep 01:53:14 01:56:00 17° 295° (WNW) 01:58:46 145.980
QB50P1 30 Sep 01:58:24 02:00:35 14° 297° (WNW) 02:02:46 145.935-145.965
Oscar 19 30 Sep 02:08:42 02:13:46 54° 100° (E) 02:18:46 437.125/150
POPSAT HIP 1 30 Sep 02:13:33 02:14:12 10° 300° (WNW) 02:14:51 437.405
BEESAT 3 30 Sep 02:16:06 02:18:39 16° 319° (NW) 02:21:13 437.485
ISS 30 Sep 02:18:22 02:21:37 62° 218° (SW) 02:24:52 145.825
JAS-2 30 Sep 02:28:26 02:34:49 28° 301° (WNW) 02:41:00 435.910
AIST 2 30 Sep 02:41:56 02:45:08 22° 113° (ESE) 02:48:23 435.215
Cosmos 2491 30 Sep 02:43:03 02:51:47 66° 268° (W) 03:00:26 435.465 / 435.565
MOZHAYETS 4 30 Sep 02:48:36 02:52:07 22° 66° (ENE) 02:55:41
ITUPSAT 1 30 Sep 02:54:21 02:59:02 58° 259° (W) 03:03:46 437.325
KKS-1 30 Sep 02:57:47 03:00:49 18° 64° (ENE) 03:03:51 437.445
PCSat 30 Sep 03:03:12 03:06:42 18° 105° (ESE) 03:10:14 145.827
SWISSCUBE 30 Sep 03:06:30 03:10:56 39° 262° (W) 03:15:25 437.505
ITAMSAT 1 30 Sep 03:07:18 03:11:37 25° 95° (E) 03:15:55 435.822/435.867
Cosmos 2504 30 Sep 03:09:27 03:15:34 30° 85° (E) 03:21:33 435.465 / 435.565
BEESAT 30 Sep 03:19:27 03:23:42 32° 263° (W) 03:28:00 436.000
Gurwin Techsat 1B 30 Sep 03:24:52 03:30:09 64° 288° (WNW) 03:35:23 435.225
STARS 30 Sep 03:25:14 03:28:04 17° 63° (ENE) 03:30:53 437.465
YUBILEINY 30 Sep 03:41:48 03:50:33 69° 281° (W) 03:59:18 435.215
Oscar 19 30 Sep 03:48:58 03:52:39 20° 298° (WNW) 03:56:21 437.125/150
AO-7 30 Sep 03:56:17 04:03:56 39° 99° (E) 04:11:31 29.400- 29.500
RS-15 30 Sep 03:59:28 04:11:43 60° 47° (NE) 04:23:43 29.354- 29.394
AIST 1 30 Sep 04:11:58 04:14:34 16° 86° (E) 04:17:11
CUBESAT XI-V 30 Sep 04:14:25 04:18:09 24° 66° (ENE) 04:21:56 437.345
AIST 2 30 Sep 04:19:36 04:23:25 37° 311° (NW) 04:27:18 435.215
MOZHAYETS 4 30 Sep 04:24:47 04:29:02 38° 262° (W) 04:33:21
KKS-1 30 Sep 04:32:45 04:37:01 46° 260° (W) 04:41:20 437.445
CUSAT 1 30 Sep 04:39:28 04:45:17 23° 60° (ENE) 04:50:27 437.405
Cosmos 2491 30 Sep 04:44:02 04:46:44 12° 288° (WNW) 04:49:27 435.465 / 435.565
PCSat 30 Sep 04:44:08 04:49:31 67° 302° (WNW) 04:54:57 145.827
AO-85 30 Sep 04:44:44 04:48:28 30° 47° (NE) 04:51:59 145.980
ITAMSAT 1 30 Sep 04:46:19 04:51:12 41° 291° (WNW) 04:56:05 435.822/435.867
DANDE 30 Sep 04:50:36 04:55:16 16° 55° (NE) 04:59:49 436.750
STARS 30 Sep 04:59:47 05:04:02 49° 260° (W) 05:08:17 437.465
Cosmos 2504 30 Sep 05:01:32 05:08:36 49° 284° (WNW) 05:15:31 435.465 / 435.565
BRITE-PL 30 Sep 05:11:43 05:13:12 11° 86° (E) 05:14:39 437.365/2234.400
HORYU 2 30 Sep 05:42:54 05:47:08 41° 99° (E) 05:51:21 437.375
YUBILEINY 30 Sep 05:44:49 05:49:13 14° 304° (NW) 05:53:39 435.215
AIST 1 30 Sep 05:47:33 05:51:46 45° 282° (WNW) 05:55:59
AO-7 30 Sep 05:48:57 05:56:50 50° 297° (WNW) 06:04:42 29.400- 29.500
CUBESAT XI-V 30 Sep 05:50:58 05:55:19 38° 263° (W) 05:59:44 437.345
RS-15 30 Sep 06:12:31 06:24:01 48° 251° (WSW) 06:35:14 29.354- 29.394
STRAND 1 30 Sep 06:15:26 06:19:24 23° 64° (ENE) 06:23:23 437.568
CUSAT 1 30 Sep 06:20:38 06:28:18 76° 263° (W) 06:34:32 437.405
O/OREOS (USA 219) 30 Sep 06:22:14 06:26:03 27° 103° (ESE) 06:29:56 437.305
GOMX 1 30 Sep 06:24:44 06:28:25 26° 94° (E) 06:31:57 467.674
AO-85 30 Sep 06:25:20 06:28:47 26° 246° (WSW) 06:32:04 145.980
NOAA 18 30 Sep 06:25:45 06:29:47 21° 93° (E) 06:33:48 137.9125
PCSat 30 Sep 06:31:08 06:33:59 14° 324° (NW) 06:36:50 145.827
DANDE 30 Sep 06:31:24 06:39:48 65° 76° (ENE) 06:47:25 436.750
DOVE 4 30 Sep 06:34:46 06:36:49 13° 90° (E) 06:38:51 437.250
NOAA 15 30 Sep 06:38:47 06:43:49 41° 98° (E) 06:48:46 137.62
BRITE-PL 30 Sep 06:47:37 06:52:22 70° 286° (WNW) 06:56:45 437.365/2234.400
LilacSat-2 30 Sep 06:51:20 06:55:03 45° 99° (E) 06:58:46 437.200
CUTE-I 30 Sep 07:03:03 07:08:20 57° 101° (E) 07:13:36 437.470
Cubesat XI-IV 30 Sep 07:03:42 07:09:00 57° 101° (E) 07:14:16 437.490
HORYU 2 30 Sep 07:20:07 07:23:24 20° 295° (WNW) 07:26:41 437.375
CINEMA 3 30 Sep 07:28:23 07:30:30 14° 91° (E) 07:32:38 145.822/145.860
AO-7 30 Sep 07:44:43 07:47:39 12° 319° (NW) 07:50:35 29.400- 29.500
PRISM 30 Sep 07:45:52 07:48:19 15° 63° (ENE) 07:50:45 437.425
STRAND 1 30 Sep 07:53:24 07:58:16 46° 261° (W) 08:03:12 437.568
O/OREOS (USA 219) 30 Sep 08:01:16 08:05:21 32° 301° (WNW) 08:09:29 437.305
COMPASS 1 30 Sep 08:02:35 08:03:31 11° 89° (E) 08:04:28 437.405
GOMX 1 30 Sep 08:02:48 08:06:29 27° 293° (WNW) 08:10:01 467.674
HO-68 30 Sep 08:04:03 08:10:25 33° 96° (E) 08:16:44 435.675
GONETS M04 30 Sep 08:04:57 08:13:13 46° 88° (E) 08:21:30
Cosmos 2499 30 Sep 08:05:02 08:11:17 35° 87° (E) 08:17:31 435.465 / 435.565
NOAA 18 30 Sep 08:05:25 08:10:45 55° 290° (WNW) 08:16:06 137.9125
CUSAT 1 30 Sep 08:05:31 08:08:39 13° 285° (WNW) 08:11:36 437.405
DOVE 4 30 Sep 08:10:49 08:14:52 49° 287° (WNW) 08:18:52 437.250
DANDE 30 Sep 08:15:02 08:21:57 30° 276° (W) 08:28:23 436.750
BEESAT 2 30 Sep 08:17:37 08:19:42 14° 39° (NE) 08:21:46 435.950
CUBEBUG 2 30 Sep 08:18:49 08:21:01 14° 91° (E) 08:23:14 437.445
NOAA 15 30 Sep 08:18:58 08:23:23 27° 296° (WNW) 08:27:45 137.62
LilacSat-2 30 Sep 08:26:55 08:28:58 14° 295° (WNW) 08:31:02 437.200
UWE-3 30 Sep 08:31:49 08:33:41 12° 90° (E) 08:35:33 435.000/436.395/437.385
SEEDS 30 Sep 08:33:28 08:37:24 35° 97° (E) 08:41:19 437.485
CUTE 1.7 + AOD 2 30 Sep 08:36:35 08:40:50 56° 100° (E) 08:45:03 437.475
CANX-2 30 Sep 08:38:20 08:42:39 68° 101° (E) 08:46:56 2200.000
CUTE-I 30 Sep 08:44:04 08:47:57 21° 298° (WNW) 08:51:50 437.470
Cubesat XI-IV 30 Sep 08:44:44 08:48:38 21° 298° (WNW) 08:52:32 437.490
AAUSAT CUBESAT 2 30 Sep 08:48:46 08:52:24 28° 95° (E) 08:56:01 437.432
Oscar 11 30 Sep 08:49:01 08:50:20 11° 89° (E) 08:51:39 145.826/435.025
BEESAT 3 30 Sep 08:53:10 08:57:00 44° 52° (NE) 09:00:49 437.485
ZACube-1 30 Sep 08:54:55 08:57:18 14° 91° (E) 08:59:40 437.345
UNISAT 6 30 Sep 08:59:26 09:01:16 13° 62° (ENE) 09:03:07 437.425
CINEMA 3 30 Sep 09:03:52 09:07:57 52° 287° (WNW) 09:12:06 145.822/145.860
PRISM 30 Sep 09:19:08 09:23:12 51° 260° (W) 09:27:18 437.425
PHONESAT 2.4 30 Sep 09:25:17 09:26:56 14° 153° (SSE) 09:28:35 2401.200-2431.200
ANTELSAT 30 Sep 09:32:40 09:36:15 27° 68° (ENE) 09:39:51 437.575/2403.000
COMPASS 1 30 Sep 09:35:19 09:39:32 67° 285° (WNW) 09:43:41 437.405
FUNcube-1 30 Sep 09:46:02 09:50:15 46° 99° (E) 09:54:31 145.935
DELFI C3 30 Sep 09:47:02 09:49:53 18° 93° (E) 09:52:43 145.870
HO-68 30 Sep 09:51:30 09:58:18 49° 294° (WNW) 10:05:06 435.675
TIGRISAT 30 Sep 09:51:59 09:55:58 40° 71° (ENE) 09:59:57 435.000
CUBEBUG 2 30 Sep 09:53:43 09:57:56 56° 286° (WNW) 10:02:17 437.445
BEESAT 2 30 Sep 09:54:02 09:58:04 85° 238° (WSW) 10:02:04 435.950
Cosmos 2499 30 Sep 09:57:37 10:04:14 41° 286° (WNW) 10:10:53 435.465 / 435.565
GONETS M04 30 Sep 10:01:53 10:10:06 41° 288° (WNW) 10:18:22
UWE-3 30 Sep 10:06:13 10:10:30 62° 286° (WNW) 10:14:54 435.000/436.395/437.385
SEEDS 30 Sep 10:09:39 10:12:53 21° 294° (WNW) 10:16:05 437.485
CUTE 1.7 + AOD 2 30 Sep 10:13:50 10:16:12 15° 297° (WNW) 10:18:34 437.475
CANX-2 30 Sep 10:16:09 10:17:56 12° 298° (WNW) 10:19:43 2200.000
Oscar 11 30 Sep 10:22:35 10:26:56 68° 285° (WNW) 10:31:15 145.826/435.025
AAUSAT CUBESAT 2 30 Sep 10:24:19 10:27:47 25° 292° (WNW) 10:31:14 437.432
HUMSAT D 30 Sep 10:27:02 10:30:42 27° 95° (E) 10:34:22 437.325/437.525
ZACube-1 30 Sep 10:29:37 10:33:52 55° 287° (WNW) 10:38:13 437.345
BEESAT 3 30 Sep 10:31:41 10:34:19 17° 249° (WSW) 10:36:57 437.485
UNISAT 6 30 Sep 10:33:14 10:37:27 64° 258° (WSW) 10:41:42 437.425
QB50P2 30 Sep 10:33:59 10:36:54 19° 65° (ENE) 10:39:50 145.880/145.840
POLYITAN 1 30 Sep 10:36:11 10:39:06 19° 65° (ENE) 10:42:00 437.675
JAS-2 30 Sep 10:55:16 11:01:13 35° 62° (ENE) 11:07:46 435.910
PHONESAT 2.4 30 Sep 10:59:48 11:02:35 41° 168° (SSE) 11:05:23 2401.200-2431.200
AIST 2 30 Sep 11:01:54 11:05:15 23° 44° (NE) 11:08:36 435.215
BUGSAT 1 30 Sep 11:02:38 11:04:25 13° 63° (ENE) 11:06:11 437.445
DUCHIFAT 1 30 Sep 11:09:08 11:12:55 35° 70° (ENE) 11:16:43 145.980
ANTELSAT 30 Sep 11:09:19 11:12:55 26° 265° (W) 11:16:32 437.575/2403.000
QB50P1 30 Sep 11:14:03 11:18:03 45° 72° (ENE) 11:22:05 145.935-145.965
DELFI C3 30 Sep 11:21:09 11:24:49 35° 289° (WNW) 11:28:27 145.870
FUNcube-1 30 Sep 11:23:15 11:26:09 18° 295° (WNW) 11:29:06 145.935
POPSAT HIP 1 30 Sep 11:27:42 11:31:50 64° 74° (ENE) 11:36:00 437.405
TIGRISAT 30 Sep 11:29:59 11:32:50 17° 268° (W) 11:35:42 435.000
CUBEBUG 1 30 Sep 11:36:20 11:38:49 15° 91° (E) 11:41:18 437.445
VELOX 1 30 Sep 11:39:51 11:41:40 12° 90° (E) 11:43:29 145.980
NANOSAT C BR1 30 Sep 11:42:02 11:46:13 89° 65° (ENE) 11:50:26 145.865
HO-68 30 Sep 11:44:02 11:44:21 10° 315° (NW) 11:44:39 435.675
PCSat 30 Sep 11:48:40 11:52:44 21° 43° (NE) 11:56:49 145.827
ESTCUBE 1 30 Sep 11:50:24 11:54:33 34° 97° (E) 11:58:40 437.505/2401.250
Oscar 19 30 Sep 11:50:46 11:52:47 12° 57° (ENE) 11:54:48 437.125/150
YUBILEINY 30 Sep 11:57:11 12:00:49 13° 54° (NE) 12:04:26 435.215
50 SAT 30 Sep 12:02:06 12:04:42 18° 94° (E) 12:07:18 437.505
HUMSAT D 30 Sep 12:02:38 12:06:15 27° 291° (WNW) 12:09:52 437.325/437.525
SPROUT 30 Sep 12:04:40 12:06:32 13° 90° (E) 12:08:24 437.525
QB50P2 30 Sep 12:08:27 12:12:25 40° 261° (W) 12:16:24 145.880/145.840
POLYITAN 1 30 Sep 12:10:39 12:14:36 40° 261° (W) 12:18:34 437.675
